Starlink 11526

operational
NORAD ID: 63007 Int'l Des: 2025-032 Owner: SPXS Country: US Constellation: starlink
LEOCIRCULAR

关于 Starlink 11526

正在加载描述...

实时位置

正在加载3D地球...

即将过境

高度历史

Altitude vs Time

uPlot chart will show altitude changes over time

两行轨道根数

1 63007U 25032C 25353.92438220 .00095630 00000-0 73978-3 0 9996
2 63007 42.9983 315.7068 0001486 249.6084 110.4624 15.70853908 49675
Epoch: Dec 19, 2025 • Age: 7 hours

当前状态

高度 356.4 km
速度 7.70 km/s
星下点 -4.93°S, 26.02°W
发射日期 Feb 15, 2025
运行时间 0.8 years
类型 internet

技术详情

分类 Payload
质量 960.00 kg
干质量 910.00 kg
总质量 960.00 kg
长度 0.30 m
直径 4.10 m
跨度 29.00 m
形状 Box + pan
制造商 SPXS
平台类型 Starlink V2MD
阶段状态 In Orbit
所有者/国家 SPXS/US

大型星座

Loading constellations...